sat.trackr.live / text

‹ back to catalog

TIANYAN 02

NORAD 44882 · 2019-093D

PAYLOAD ACTIVE UNKNOWN

§ Identity

Operator
Country
PRC
Launch date
2019-12-20
Launch site
TAISC
Launch vehicle
Mass (kg)
RCS (m²)

External: N2YO · Heavens-Above · Gunter

§ Orbital elements

Epoch: 2026-05-25T05:58:49.252224Z

Period
95.69 min
Inclination
97.7925°
Eccentricity
0.0015705
Mean motion
15.04891199 rev/d
Perigee alt
541.0 km
Apogee alt
562.7 km
Semi-major
6,930.0 km
B*
4.5724e-4
RAAN
239.8271°
Arg perigee
101.4603°
Mean anomaly
258.8387°
Rev number
34,916

§ Raw data

TIANYAN 021 44882U 19093D   26145.24918116  .00006425  00000+0  45724-3 0  99992 44882  97.7925 239.8271 0015705 101.4603 258.8387 15.04891199349163

JSON: /api/v1/satellites/44882 · /tle

For live sub-satellite position, see the globe view (requires WebGL).

§ Visibility from observer

Set your observer location to see the next 7 days of passes ≥ 10°. The values pass through the URL so the page stays shareable.

No JS? Fill the form by hand. The geolocation button needs JavaScript.

§ Radio — SatNOGS DB

ModeDescriptionDownlinkUplink
FM UHF Unknown 401.550 MHz

1 transmitter · refreshed weekly from db.satnogs.org